Time,TemperatureF,DewpointF,PressureIn,WindDirection,WindDirectionDegrees,WindSpeedMPH,WindSpeedGustMPH,Humidity,HourlyPrecipIn,Conditions,Clouds,dailyrainin,SoftwareType,DateUTC
2013-08-02 00:06:00,65.7,60.4,29.74,WNW,292,3.2,-999.0,83,-99.99,,,0.00,Acu-Link.com,2013-08-02 04:06:00,
2013-08-02 00:21:00,65.5,60.2,29.75,West,270,1.7,-999.0,83,-99.99,,,0.00,Acu-Link.com,2013-08-02 04:21:00,
2013-08-02 00:36:00,64.9,59.6,29.75,NW,315,3.7,-999.0,83,-99.99,,,0.00,Acu-Link.com,2013-08-02 04:36:00,
2013-08-02 01:06:00,64.6,59.3,29.75,West,270,0.0,-999.0,83,-99.99,,,0.00,Acu-Link.com,2013-08-02 05:06:00,
2013-08-02 01:22:00,64.2,59.3,29.75,SW,225,1.7,-999.0,84,-99.99,,,0.00,Acu-Link.com,2013-08-02 05:22:00,
2013-08-02 01:37:00,63.7,59.1,29.75,SW,225,1.1,-999.0,85,-99.99,,,0.00,Acu-Link.com,2013-08-02 05:37:00,
2013-08-02 01:52:00,63.3,58.7,29.75,WSW,247,0.0,-999.0,85,-99.99,,,0.00,Acu-Link.com,2013-08-02 05:52:00,
2013-08-02 02:07:00,62.8,58.5,29.75,ESE,112,1.1,-999.0,86,-99.99,,,0.00,Acu-Link.com,2013-08-02 06:07:00,
2013-08-02 02:22:00,62.4,58.5,29.74,SW,225,0.0,-999.0,87,-99.99,,,0.00,Acu-Link.com,2013-08-02 06:22:00,
2013-08-02 02:37:00,62.2,58.3,29.74,West,270,0.0,-999.0,87,-99.99,,,0.00,Acu-Link.com,2013-08-02 06:37:00,
2013-08-02 02:52:00,61.7,57.8,29.75,West,270,1.7,-999.0,87,-99.99,,,0.00,Acu-Link.com,2013-08-02 06:52:00,
2013-08-02 03:07:00,61.3,57.4,29.74,South,180,1.1,-999.0,87,-99.99,,,0.00,Acu-Link.com,2013-08-02 07:07:00,
2013-08-02 03:22:00,61.0,57.4,29.75,West,270,1.1,-999.0,88,-99.99,,,0.00,Acu-Link.com,2013-08-02 07:22:00,
2013-08-02 03:37:00,61.0,57.4,29.74,NNE,22,1.7,-999.0,88,-99.99,,,0.00,Acu-Link.com,2013-08-02 07:37:00,
2013-08-02 03:53:00,60.6,57.0,29.75,ESE,112,1.7,-999.0,88,-99.99,,,0.00,Acu-Link.com,2013-08-02 07:53:00,
2013-08-02 04:08:00,60.6,57.0,29.75,South,180,1.1,-999.0,88,-99.99,,,0.00,Acu-Link.com,2013-08-02 08:08:00,
2013-08-02 04:23:00,60.1,56.8,29.75,WSW,247,1.1,-999.0,89,-99.99,,,0.00,Acu-Link.com,2013-08-02 08:23:00,
2013-08-02 04:38:00,59.9,56.6,29.76,WNW,292,1.7,-999.0,89,-99.99,,,0.00,Acu-Link.com,2013-08-02 08:38:00,
2013-08-02 04:54:00,59.5,56.6,29.76,West,270,2.2,-999.0,90,-99.99,,,0.00,Acu-Link.com,2013-08-02 08:54:00,
2013-08-02 05:09:00,59.5,56.6,29.76,SSW,202,0.0,-999.0,90,-99.99,,,0.00,Acu-Link.com,2013-08-02 09:09:00,
2013-08-02 05:24:00,59.7,56.8,29.77,ESE,112,0.0,-999.0,90,-99.99,,,0.00,Acu-Link.com,2013-08-02 09:24:00,
2013-08-02 05:39:00,59.4,56.5,29.78,West,270,1.1,-999.0,90,-99.99,,,0.00,Acu-Link.com,2013-08-02 09:39:00,
2013-08-02 05:54:00,59.4,56.8,29.78,SW,225,2.7,-999.0,91,-99.99,,,0.00,Acu-Link.com,2013-08-02 09:54:00,
2013-08-02 06:09:00,59.2,56.6,29.77,WNW,292,3.2,-999.0,91,-99.99,,,0.00,Acu-Link.com,2013-08-02 10:09:00,
2013-08-02 06:24:00,59.4,56.5,29.78,ENE,67,4.7,-999.0,90,-99.99,,,0.00,Acu-Link.com,2013-08-02 10:24:00,
2013-08-02 06:39:00,59.4,56.5,29.78,West,270,1.1,-999.0,90,-99.99,,,0.00,Acu-Link.com,2013-08-02 10:39:00,
2013-08-02 06:55:00,59.5,56.6,29.79,WNW,292,4.7,-999.0,90,-99.99,,,0.00,Acu-Link.com,2013-08-02 10:55:00,
2013-08-02 07:10:00,59.7,56.5,29.80,West,270,1.7,-999.0,89,-99.99,,,0.00,Acu-Link.com,2013-08-02 11:10:00,
2013-08-02 07:25:00,60.4,57.1,29.81,WNW,292,5.3,-999.0,89,-99.99,,,0.00,Acu-Link.com,2013-08-02 11:25:00,
2013-08-02 07:40:00,60.8,56.9,29.82,WNW,292,2.7,-999.0,87,-99.99,,,0.00,Acu-Link.com,2013-08-02 11:40:00,
2013-08-02 07:55:00,61.9,58.0,29.82,NW,315,2.2,-999.0,87,-99.99,,,0.00,Acu-Link.com,2013-08-02 11:55:00,
2013-08-02 08:10:00,62.8,58.2,29.82,SSW,202,1.1,-999.0,85,-99.99,,,0.00,Acu-Link.com,2013-08-02 12:10:00,
2013-08-02 08:25:00,63.3,58.4,29.83,South,180,0.0,-999.0,84,-99.99,,,0.00,Acu-Link.com,2013-08-02 12:25:00,
2013-08-02 08:40:00,63.9,58.6,29.82,West,270,0.0,-999.0,83,-99.99,,,0.00,Acu-Link.com,2013-08-02 12:40:00,
2013-08-02 08:55:00,64.2,58.6,29.82,ESE,112,0.0,-999.0,82,-99.99,,,0.00,Acu-Link.com,2013-08-02 12:55:00,
2013-08-02 09:10:00,64.6,58.6,29.82,West,270,4.2,-999.0,81,-99.99,,,0.00,Acu-Link.com,2013-08-02 13:10:00,
2013-08-02 09:26:00,65.3,59.0,29.82,West,270,1.7,-999.0,80,-99.99,,,0.00,Acu-Link.com,2013-08-02 13:26:00,
2013-08-02 09:41:00,66.4,59.3,29.83,WSW,247,1.7,-999.0,78,-99.99,,,0.00,Acu-Link.com,2013-08-02 13:41:00,
2013-08-02 09:56:00,67.3,59.8,29.82,West,270,2.7,-999.0,77,-99.99,,,0.00,Acu-Link.com,2013-08-02 13:56:00,
2013-08-02 10:26:00,69.3,60.6,29.80,ENE,67,1.7,-999.0,74,-99.99,,,0.00,Acu-Link.com,2013-08-02 14:26:00,
2013-08-02 10:56:00,71.8,61.1,29.81,SE,135,1.7,-999.0,69,-99.99,,,0.00,Acu-Link.com,2013-08-02 14:56:00,
2013-08-02 11:11:00,73.0,61.0,29.79,NNE,22,4.7,-999.0,66,-99.99,,,0.00,Acu-Link.com,2013-08-02 15:11:00,
2013-08-02 11:26:00,75.7,61.7,29.79,WNW,292,1.1,-999.0,62,-99.99,,,0.00,Acu-Link.com,2013-08-02 15:26:00,
2013-08-02 11:42:00,75.7,61.7,29.80,NE,45,3.2,-999.0,62,-99.99,,,0.00,Acu-Link.com,2013-08-02 15:42:00,
2013-08-02 11:57:00,78.1,62.1,29.78,East,90,2.2,-999.0,58,-99.99,,,0.00,Acu-Link.com,2013-08-02 15:57:00,
2013-08-02 12:12:00,80.4,62.2,29.79,NNW,337,3.7,-999.0,54,-99.99,,,0.00,Acu-Link.com,2013-08-02 16:12:00,
2013-08-02 12:27:00,81.0,62.2,29.78,ESE,112,2.7,-999.0,53,-99.99,,,0.00,Acu-Link.com,2013-08-02 16:27:00,
2013-08-02 12:42:00,79.9,60.7,29.79,SSE,157,4.2,-999.0,52,-99.99,,,0.00,Acu-Link.com,2013-08-02 16:42:00,
2013-08-02 12:57:00,78.4,58.8,29.79,West,270,2.7,-999.0,51,-99.99,,,0.00,Acu-Link.com,2013-08-02 16:57:00,
2013-08-02 13:12:00,81.7,61.8,29.77,SE,135,2.2,-999.0,51,-99.99,,,0.00,Acu-Link.com,2013-08-02 17:12:00,
2013-08-02 13:28:00,79.7,58.3,29.77,ESE,112,1.7,-999.0,48,-99.99,,,0.00,Acu-Link.com,2013-08-02 17:28:00,
2013-08-02 13:43:00,83.5,60.5,29.76,ESE,112,3.7,-999.0,46,-99.99,,,0.00,Acu-Link.com,2013-08-02 17:43:00,
2013-08-02 13:58:00,82.9,60.6,29.75,SW,225,2.7,-999.0,47,-99.99,,,0.00,Acu-Link.com,2013-08-02 17:58:00,
2013-08-02 14:13:00,83.1,59.5,29.75,SE,135,1.7,-999.0,45,-99.99,,,0.00,Acu-Link.com,2013-08-02 18:13:00,
2013-08-02 14:28:00,80.8,58.1,29.75,SSE,157,2.2,-999.0,46,-99.99,,,0.00,Acu-Link.com,2013-08-02 18:28:00,
2013-08-02 14:43:00,82.8,56.7,29.77,SSW,202,3.2,-999.0,41,-99.99,,,0.00,Acu-Link.com,2013-08-02 18:43:00,
2013-08-02 14:58:00,81.1,57.1,29.75,NE,45,4.7,-999.0,44,-99.99,,,0.00,Acu-Link.com,2013-08-02 18:58:00,
2013-08-02 15:13:00,83.1,55.5,29.75,East,90,4.2,-999.0,39,-99.99,,,0.00,Acu-Link.com,2013-08-02 19:13:00,
2013-08-02 15:29:00,81.7,55.0,29.76,West,270,2.7,-999.0,40,-99.99,,,0.00,Acu-Link.com,2013-08-02 19:29:00,
2013-08-02 15:44:00,82.6,53.7,29.77,NW,315,4.7,-999.0,37,-99.99,,,0.00,Acu-Link.com,2013-08-02 19:44:00,
2013-08-02 15:59:00,82.2,54.8,29.78,WNW,292,3.7,-999.0,39,-99.99,,,0.00,Acu-Link.com,2013-08-02 19:59:00,
2013-08-02 16:14:00,80.2,55.0,29.76,ESE,112,2.7,-999.0,42,-99.99,,,0.00,Acu-Link.com,2013-08-02 20:14:00,
2013-08-02 16:29:00,79.9,57.2,29.73,South,180,1.7,-999.0,46,-99.99,,,0.00,Acu-Link.com,2013-08-02 20:29:00,
2013-08-02 16:44:00,79.9,56.6,29.75,NE,45,2.7,-999.0,45,-99.99,,,0.00,Acu-Link.com,2013-08-02 20:44:00,
2013-08-02 16:59:00,82.2,58.1,29.75,WNW,292,3.2,-999.0,44,-99.99,,,0.00,Acu-Link.com,2013-08-02 20:59:00,
2013-08-02 17:14:00,82.4,57.6,29.75,ESE,112,3.2,-999.0,43,-99.99,,,0.00,Acu-Link.com,2013-08-02 21:14:00,
2013-08-02 17:29:00,82.4,57.6,29.75,ESE,112,3.7,-999.0,43,-99.99,,,0.00,Acu-Link.com,2013-08-02 21:29:00,
2013-08-02 17:45:00,81.5,55.5,29.76,SW,225,4.2,-999.0,41,-99.99,,,0.00,Acu-Link.com,2013-08-02 21:45:00,
2013-08-02 18:00:00,81.5,54.1,29.76,West,270,3.7,-999.0,39,-99.99,,,0.00,Acu-Link.com,2013-08-02 22:00:00,
2013-08-02 18:15:00,80.6,54.0,29.76,West,270,2.7,-999.0,40,-99.99,,,0.00,Acu-Link.com,2013-08-02 22:15:00,
2013-08-02 18:30:00,79.3,54.2,29.76,ESE,112,5.3,-999.0,42,-99.99,,,0.00,Acu-Link.com,2013-08-02 22:30:00,
2013-08-02 18:45:00,79.3,54.8,29.76,East,90,1.7,-999.0,43,-99.99,,,0.00,Acu-Link.com,2013-08-02 22:45:00,
2013-08-02 19:00:00,78.4,54.7,29.76,WNW,292,0.0,-999.0,44,-99.99,,,0.00,Acu-Link.com,2013-08-02 23:00:00,
2013-08-02 19:15:00,79.5,55.0,29.77,WNW,292,4.2,-999.0,43,-99.99,,,0.00,Acu-Link.com,2013-08-02 23:15:00,
2013-08-02 19:30:00,78.1,54.4,29.77,NW,315,3.7,-999.0,44,-99.99,,,0.00,Acu-Link.com,2013-08-02 23:30:00,
2013-08-02 19:45:00,76.1,54.4,29.77,NW,315,0.0,-999.0,47,-99.99,,,0.00,Acu-Link.com,2013-08-02 23:45:00,
2013-08-02 20:01:00,75.0,54.0,29.78,SE,135,0.0,-999.0,48,-99.99,,,0.00,Acu-Link.com,2013-08-03 00:01:00,
2013-08-02 20:16:00,73.6,55.9,29.77,NNE,22,0.0,-999.0,54,-99.99,,,0.00,Acu-Link.com,2013-08-03 00:16:00,
2013-08-02 20:31:00,72.5,55.9,29.78,NW,315,0.0,-999.0,56,-99.99,,,0.00,Acu-Link.com,2013-08-03 00:31:00,
2013-08-02 20:46:00,71.2,56.6,29.79,South,180,0.0,-999.0,60,-99.99,,,0.00,Acu-Link.com,2013-08-03 00:46:00,
2013-08-02 21:01:00,70.0,55.5,29.79,North,0,1.1,-999.0,60,-99.99,,,0.00,Acu-Link.com,2013-08-03 01:01:00,
2013-08-02 21:16:00,68.7,56.0,29.80,WNW,292,1.7,-999.0,64,-99.99,,,0.00,Acu-Link.com,2013-08-03 01:16:00,
2013-08-02 21:31:00,68.4,55.7,29.80,ESE,112,0.0,-999.0,64,-99.99,,,0.00,Acu-Link.com,2013-08-03 01:31:00,
2013-08-02 21:46:00,68.0,56.2,29.79,West,270,0.0,-999.0,66,-99.99,,,0.00,Acu-Link.com,2013-08-03 01:46:00,
2013-08-02 22:01:00,67.8,56.0,29.79,WNW,292,0.0,-999.0,66,-99.99,,,0.00,Acu-Link.com,2013-08-03 02:01:00,
2013-08-02 22:17:00,67.5,55.7,29.80,NNW,337,0.0,-999.0,66,-99.99,,,0.00,Acu-Link.com,2013-08-03 02:17:00,
2013-08-02 22:32:00,66.6,55.7,29.79,WSW,247,1.1,-999.0,68,-99.99,,,0.00,Acu-Link.com,2013-08-03 02:32:00,
2013-08-02 22:47:00,66.2,55.7,29.79,West,270,0.0,-999.0,69,-99.99,,,0.00,Acu-Link.com,2013-08-03 02:47:00,
2013-08-02 23:02:00,66.2,55.7,29.78,WNW,292,0.0,-999.0,69,-99.99,,,0.00,Acu-Link.com,2013-08-03 03:02:00,
2013-08-02 23:17:00,66.0,55.5,29.78,South,180,0.0,-999.0,69,-99.99,,,0.00,Acu-Link.com,2013-08-03 03:17:00,
2013-08-02 23:32:00,65.3,55.6,29.78,South,180,0.0,-999.0,71,-99.99,,,0.00,Acu-Link.com,2013-08-03 03:32:00,
2013-08-02 23:47:00,65.5,55.4,29.79,SW,225,1.1,-999.0,70,-99.99,,,0.00,Acu-Link.com,2013-08-03 03:47:00,